User: anonymous   Login
Location: The Jewett Observatory
(46.7288°N, 117.1525°W)
Time: 20:10:30
(UTC-07:00)
Language:

Cosmos 1844 Rocket - Orbit

View from above orbital plane
View from above orbital plane
View from above satellite
View from above satellite

Ground track
Ground track

The orbit data is extracted from the following two-line orbital elements,

1 17974U 87041B   15091.51977542 -.00000158  00000-0 -54597-4 0  9994
2 17974 071.0086 171.4406 0014475 196.4105 254.8195 14.17155439442253
Epoch (UTC): 01 April 2015 12:28:28
Eccentricity: 0.0014475
inclination: 71.0086°
perigee height: 824 km
apogee height: 845 km
right ascension of ascending node: 171.4406°
argument of perigee: 196.4105°
revolutions per day: 14.17155439
mean anomaly at epoch: 254.8195°
orbit number at epoch: 44225

The dashed part of the orbit path shows where the satellite is in the earth's shadow,  

DLR